Regional Weather Roundup
Issued by NWS

Home | Current Version | Previous Version | Text Only | Print | Product List | Glossary Off
Versions: 1 2 3 4 5 6 7 8 9 10 11 12 13 14 15 16 17 18 19 20 21 22 23 24 25 26 27 28 29 30 31 32 33 34 35 36 37 38 39 40 41 42 43 44 45 46 47 48 49 50

000
ASUS43 KFSD 240110
RWRSD

WEATHER ROUNDUP FOR SOUTH DAKOTA
NATIONAL WEATHER SERVICE SIOUX FALLS SD
800 PM CDT SAT JUL 23 2016

NOTE: "FAIR" INDICATES FEW OR NO CLOUDS BELOW 12,000 FEET WITH NO
SIGNIFICANT WEATHER AND/OR OBSTRUCTIONS TO VISIBILITY.


SDZ001>005-009-010-012>017-240200-
NORTHWEST AND NORTH CENTRAL SOUTH DAKOTA

CITY           SKY/WX    TMP DP  RH WIND       PRES   REMARKS
BUFFALO          N/A     85  39  19 NW25G32   29.88S
FAITH            N/A     87  34  15 NW20G25   29.90R
MOBRIDGE       SUNNY     85  55  35 N8        29.81S
$$

SDZ012>016-024>037-041>051-057-063-072>074-240200-
SOUTHWEST AND SOUTH CENTRAL SOUTH DAKOTA

CITY           SKY/WX    TMP DP  RH WIND       PRES   REMARKS
RAPID CTY ARPT SUNNY     85  43  22 N10G21    29.95R
PIERRE         SUNNY     86  55  34 N14       29.82R
CUSTER         SUNNY     76  40  27 NE15G23   30.11R
ELLSWORTH AFB  SUNNY     87  42  20 N16G23    29.95R
PHILIP         SUNNY     90  44  20 N10       29.87R
PINE RIDGE     SUNNY     86  48  26 NE8       29.96R
WINNER         FAIR      91  59  33 N18       29.84R
$$

SDZ004>011-016>023-039-040-240200-
NORTHEAST SOUTH DAKOTA

CITY           SKY/WX    TMP DP  RH WIND       PRES   REMARKS
ABERDEEN       SUNNY     83  69  62 NW15      29.76R
WATERTOWN      PTCLDY    87  74  64 SE8       29.74R HX  95
BROOKINGS      CLEAR     87  78  74 S7        29.75R HX 100
SISSETON         N/A     82  77  84 S8        29.70R
$$

SDZ017-020-022-023-036>040-048>070-240200-
SOUTHEAST SOUTH DAKOTA

CITY           SKY/WX    TMP DP  RH WIND       PRES   REMARKS
SIOUX FALLS    PTCLDY    89  73  59 SW6       29.74S HX  97
HURON          PTSUNNY   87  74  64 N22G28    29.74R HX  95
CHAMBERLAIN    SUNNY     90  68  47 N17G25    29.80R
MITCHELL       MOCLDY    91  77  63 E5        29.71R HX 104
YANKTON        CLEAR     90  75  62 S7        29.71S HX 100
$$

ABBREVIATIONS USED IN REMARKS
   TC - TEMPERATURE IN CELSIUS
  WCI - WIND CHILL INDEX
   HX - HEAT INDEX
  VSB - VISIBILITY





USA.gov is the U.S. government's official web portal to all federal, state and local government web resources and services.